TimeCDT,TemperatureF,Dew PointF,Humidity,Sea Level PressureIn,VisibilityMPH,Wind Direction,Wind SpeedMPH,Gust SpeedMPH,PrecipitationIn,Events,Conditions,WindDirDegrees,DateUTC
12:52 AM,23.0,18.0,81,30.08,-9999.0,WNW,5.8,-,N/A,,Partly Cloudy,290,2013-04-19 05:52:00
1:52 AM,21.9,18.0,85,30.06,-9999.0,WNW,5.8,-,N/A,,Clear,290,2013-04-19 06:52:00
2:52 AM,19.9,17.1,89,30.06,-9999.0,West,6.9,-,N/A,,Clear,280,2013-04-19 07:52:00
3:52 AM,21.0,17.1,85,30.04,-9999.0,WNW,5.8,-,N/A,,Clear,300,2013-04-19 08:52:00
4:52 AM,19.0,16.0,88,30.03,-9999.0,West,4.6,-,N/A,,Partly Cloudy,270,2013-04-19 09:52:00
5:52 AM,21.9,17.1,82,30.02,-9999.0,West,5.8,-,N/A,,Overcast,280,2013-04-19 10:52:00
6:52 AM,23.0,18.0,81,30.00,-9999.0,Calm,Calm,-,N/A,,Overcast,0,2013-04-19 11:52:00
7:52 AM,27.0,21.0,78,30.02,-9999.0,NW,3.5,-,N/A,,Overcast,310,2013-04-19 12:52:00
8:52 AM,30.0,23.0,75,30.04,-9999.0,NW,4.6,-,N/A,,Overcast,310,2013-04-19 13:52:00
9:52 AM,32.0,19.9,61,30.04,-9999.0,North,8.1,-,N/A,,Overcast,360,2013-04-19 14:52:00
10:22 AM,33.8,19.4,56,29.97,-9999.0,North,11.5,-,N/A,,Scattered Clouds,10,2013-04-19 15:22:00
10:52 AM,35.1,21.9,59,30.06,-9999.0,North,9.2,-,N/A,,Partly Cloudy,350,2013-04-19 15:52:00
11:52 AM,36.0,24.1,62,30.07,-9999.0,North,13.8,-,N/A,,Partly Cloudy,350,2013-04-19 16:52:00
12:52 PM,37.9,24.1,57,30.08,-9999.0,NW,11.5,-,N/A,,Scattered Clouds,320,2013-04-19 17:52:00
1:52 PM,41.0,25.0,53,30.07,-9999.0,NNW,15.0,-,N/A,,Scattered Clouds,340,2013-04-19 18:52:00
2:52 PM,41.0,24.1,51,30.08,-9999.0,North,13.8,24.2,N/A,,Partly Cloudy,10,2013-04-19 19:52:00
3:52 PM,41.0,21.9,47,30.08,-9999.0,North,11.5,17.3,N/A,,Mostly Cloudy,350,2013-04-19 20:52:00
4:52 PM,44.1,21.9,42,30.07,-9999.0,North,10.4,18.4,N/A,,Partly Cloudy,360,2013-04-19 21:52:00
5:52 PM,43.0,21.9,43,30.07,-9999.0,North,8.1,17.3,N/A,,Clear,350,2013-04-19 22:52:00
6:52 PM,43.0,19.9,40,30.08,-9999.0,North,9.2,-,N/A,,Clear,360,2013-04-19 23:52:00
7:52 PM,39.9,19.9,45,30.08,-9999.0,North,8.1,-,N/A,,Clear,360,2013-04-20 00:52:00
8:52 PM,36.0,21.0,55,30.09,-9999.0,NE,4.6,-,N/A,,Clear,50,2013-04-20 01:52:00
9:52 PM,30.9,21.0,67,30.11,-9999.0,ENE,5.8,-,N/A,,Clear,70,2013-04-20 02:52:00
10:52 PM,30.0,21.0,69,30.11,-9999.0,ENE,6.9,-,N/A,,Clear,70,2013-04-20 03:52:00
11:52 PM,30.0,21.0,69,30.11,-9999.0,East,8.1,-,N/A,,Overcast,80,2013-04-20 04:52:00